Weather History for Ord, NE

Change the Weather History Date:

Friday, April 4, 2014

  Actual Average Record
Temperature  
Mean Temperature 42 °F 45 °F  
Max Temperature 53 °F 58 °F 75 °F (2005)
Min Temperature 30 °F 32 °F 19 °F (2002)
Degree Days  
Heating Degree Days 23    
Month to date heating degree days 116  
Cooling Degree Days 0    
Month to date cooling degree days 0  
Year to date cooling degree days 0  
Moisture  
Dew Point 22 °F    
Average Humidity 53    
Maximum Humidity 82    
Minimum Humidity 24    
Precipitation  
Precipitation 0.00 in 0.06 in 1.06 in (1958)
Month to date precipitation 0.16 0.21  
Year to date precipitation 0.61 2.47  
Sea Level Pressure  
Sea Level Pressure 30.09 in    
Wind  
Wind Speed 12 mph (NNW)    
Max Wind Speed 30 mph    
Max Gust Speed 38 mph    
Visibility 10 miles    
Events      
T = Trace of Precipitation, MM = Missing Value Source: NWS Daily Summary

Daily Weather History Graph

Daily Weather History Graph

Search for Another Location

Airport:

Trip Planner

Search our weather history database for the weather conditions in past years. The results will help you decide how hot, cold, wet, or windy it might be!

Date:

Astronomy

Apr. 04, 2014 Rise Set
Actual Time 7:13 AM CDT 8:04 PM CDT
Civil Twilight 6:45 AM CDT 8:32 PM CDT
Nautical Twilight 6:12 AM CDT 9:06 PM CDT
Astronomical Twilight 5:37 AM CDT 9:41 PM CDT
Moon 10:29 AM CDT (4/4) 12:27 AM CDT (4/4)
Length of Visible Light 13h 47m
Length of Day
12h 50m
Waxing Crescent, 25% of the Moon is Illuminated
Apr 4
Waxing Crescent
Apr 7
First Quarter
Apr 15
Full
Apr 22
Last Quarter
Apr 29
New

Hourly Weather History & Observations

Time (CDT) Temp. Windchill Dew Point Humidity Pressure Visibility Wind Dir Wind Speed Gust Speed Precip Events Conditions
12:53 AM 32.0 °F 20.1 °F 26.1 °F 79% 30.04 in 10.0 mi NNW 19.6 mph - N/A   Overcast
1:53 AM 32.0 °F 19.5 °F 24.1 °F 73% 30.05 in 10.0 mi NNW 21.9 mph 34.5 mph N/A   Overcast
2:53 AM 30.9 °F 18.1 °F 23.0 °F 72% 30.06 in 10.0 mi NNW 21.9 mph 38.0 mph N/A   Overcast
3:53 AM 30.9 °F 17.5 °F 23.0 °F 72% 30.06 in 10.0 mi NNW 24.2 mph 31.1 mph N/A   Overcast
4:53 AM 30.9 °F 18.1 °F 23.0 °F 72% 30.07 in 10.0 mi NW 21.9 mph 28.8 mph N/A   Overcast
5:53 AM 30.9 °F 18.7 °F 21.9 °F 69% 30.09 in 10.0 mi NNW 19.6 mph 29.9 mph N/A   Overcast
6:53 AM 30.9 °F 18.7 °F 21.9 °F 69% 30.11 in 10.0 mi NNW 19.6 mph 27.6 mph N/A   Overcast
7:53 AM 30.9 °F 19.1 °F 21.9 °F 69% 30.12 in 10.0 mi NNW 18.4 mph 28.8 mph N/A   Overcast
8:53 AM 32.0 °F 21.2 °F 21.9 °F 66% 30.14 in 10.0 mi NNW 16.1 mph 27.6 mph N/A   Overcast
9:46 AM 34.0 °F 23.4 °F 23.0 °F 64% 30.08 in 10.0 mi NNW 17.3 mph - N/A   Overcast
9:53 AM 34.0 °F 24.2 °F 23.0 °F 64% 30.14 in 10.0 mi NNW 15.0 mph - N/A   Overcast
10:53 AM 37.9 °F 27.9 °F 24.1 °F 57% 30.15 in 10.0 mi North 19.6 mph - N/A   Mostly Cloudy
11:53 AM 39.9 °F 31.4 °F 24.1 °F 53% 30.15 in 10.0 mi North 16.1 mph - N/A   Partly Cloudy
12:53 PM 42.1 °F 35.2 °F 24.1 °F 49% 30.15 in 10.0 mi NW 12.7 mph - N/A   Clear
1:53 PM 46.0 °F 40.2 °F 23.0 °F 40% 30.12 in 10.0 mi NNW 12.7 mph - N/A   Clear
2:53 PM 46.9 °F - 21.9 °F 37% 30.10 in 10.0 mi WNW 11.5 mph - N/A   Clear
3:53 PM 48.9 °F - 18.0 °F 29% 30.09 in 10.0 mi Variable 3.5 mph - N/A   Clear
4:53 PM 50.0 °F - 16.0 °F 26% 30.06 in 10.0 mi Variable 3.5 mph - N/A   Clear
5:53 PM 51.1 °F - 16.0 °F 25% 30.05 in 10.0 mi NNE 6.9 mph - N/A   Clear
6:53 PM 51.1 °F - 15.1 °F 24% 30.05 in 10.0 mi Calm Calm - N/A   Clear
7:53 PM 48.0 °F - 18.0 °F 30% 30.06 in 10.0 mi ESE 4.6 mph - N/A   Clear
8:53 PM 43.0 °F 39.5 °F 19.9 °F 40% 30.09 in 10.0 mi ESE 5.8 mph - N/A   Clear
9:53 PM 37.9 °F 32.1 °F 28.0 °F 68% 30.11 in 10.0 mi ESE 8.1 mph - N/A   Clear
10:53 PM 35.1 °F 31.0 °F 28.0 °F 76% 30.10 in 9.0 mi SE 4.6 mph - N/A   Clear
11:53 PM 33.1 °F 26.9 °F 28.0 °F 82% 30.10 in 8.0 mi SE 6.9 mph - N/A   Clear